Location: Niedergestelen
(46.3129°N, 7.7822°E)
Time: 19:42:36
(UTC+00:00)

X-37B - Pass Details

Date: 23 September 2021
Orbit: 385 x 389 km, 45.0° (Epoch: 17 October)

Event Time Altitude Azimuth Distance (km) Brightness Sun altitude
Exits shadow 03:59:56 17° 204° (SSW) 1,053 2.4 -14.0°
Maximum altitude 04:01:39 28° 156° (SSE) 759 2.1 -13.7°
Drops below altitude 10° 04:04:26 10° 95° (E) 1,415 4.7 -13.2°
Sets 04:06:40 0° 83° (E) 2,273 6.5 -12.9°
